TEVEL2-8

Last updated on Thu Oct 30 2025 00:03:11 GMT+0000 (Coordinated Universal Time)

1 63239U 25052AF 25302.43392867 .00020737 00000+0 88363-3 0 9990 2 63239 97.4155 194.2024 0005256 229.9206 130.1570 15.22970677 34792
UTC large
Height (km)
Speed (km/s)
/
Latitude / Longitude
Inclination (degrees)
Orbital Period (minutes)
Azimuth
Elevation
Range (km)
Doppler Factor

Next 0 passes for location: London (51.5072 / 0.1276)

Sorry there are no passes over London.